Theta_e
318 318 320 320 321 322 324 328 324 322 324 320 316 317 315 315 316 314 315 315 315 318 316 318 316 315 320 317 317 319 318 323 321 316 318 326 329 334 339 339 339 340 340 339 340 341 340 341 341 341 341 339 338 338 338 338 336 333 330 329 331 333 335 336 336 335 335 336 335 333 328 324 324 325 323 322 320 315 309 309 313 313 312 317 319 323 329 330 330 330 330 330 332 333 332 332 331
319 319 322 321 320 320 324 327 326 324 323 316 315 318 315 314 316 316 319 316 317 321 322 326 325 321 325 323 320 322 322 323 321 321 325 328 333 336 338 339 339 340 340 339 339 340 340 339 339 340 339 338 338 338 338 338 337 334 331 330 331 333 335 335 334 334 335 335 335 333 327 324 326 326 324 322 321 320 315 314 318 318 317 318 320 325 329 330 330 330 329 330 331 332 332 331 330
320 321 321 322 320 321 330 326 321 324 323 316 316 320 315 315 318 319 320 316 319 320 320 322 323 320 322 326 321 323 324 324 324 323 326 331 334 337 339 338 339 340 339 339 340 340 340 338 339 339 337 338 338 337 337 337 338 335 332 332 332 332 332 332 333 333 334 335 334 332 327 324 327 327 325 322 322 321 319 320 322 322 323 323 323 326 328 329 329 329 329 330 331 331 330 330 329
319 321 319 323 324 326 345 335 325 327 321 318 318 320 321 321 319 319 317 315 319 317 315 317 320 316 318 325 320 321 326 326 327 325 328 332 334 338 339 337 339 340 338 339 340 340 340 339 340 338 337 337 338 337 337 337 338 337 333 330 330 330 330 331 333 333 334 334 333 331 327 326 328 328 326 323 321 320 318 321 325 326 326 326 326 327 328 329 329 329 329 329 331 330 329 328 327
319 320 317 323 327 326 335 328 326 326 317 319 319 319 326 325 319 318 315 313 315 313 313 318 321 316 317 325 320 322 325 324 325 326 330 333 334 337 338 338 339 339 339 339 340 341 340 340 340 338 338 337 338 337 337 338 337 338 335 329 329 331 331 332 332 333 333 334 333 331 327 328 330 329 327 324 321 319 315 315 322 326 326 326 327 328 328 328 328 328 328 329 330 329 328 327 327
320 319 317 319 319 316 322 320 320 321 316 321 320 319 324 322 317 317 314 311 312 311 312 317 321 321 323 325 321 322 323 324 326 328 332 334 336 337 337 337 338 340 340 340 340 340 340 340 340 338 337 337 337 337 337 338 337 338 335 331 331 332 332 332 331 332 333 333 334 332 329 329 331 330 328 324 322 319 314 310 313 319 324 327 327 327 328 328 328 328 328 328 328 328 327 327 327
320 321 324 321 318 318 326 324 320 320 316 315 317 318 320 319 316 315 312 311 312 311 313 318 320 321 322 320 320 323 324 326 326 329 333 334 337 336 337 338 339 340 340 341 340 340 341 341 340 339 338 337 337 337 337 337 337 337 335 332 332 332 330 330 331 331 332 333 333 333 331 330 330 330 329 325 321 319 315 308 306 308 316 325 327 327 328 327 327 328 327 328 327 327 326 326 326
319 322 327 329 329 328 332 326 320 321 315 311 314 317 319 318 315 314 313 314 313 313 319 321 317 318 318 316 323 324 324 328 327 331 333 334 337 337 338 339 340 340 340 341 341 340 341 341 340 339 338 337 336 336 337 336 337 337 334 330 330 330 329 328 330 331 331 332 333 333 332 330 330 330 330 326 322 320 316 309 304 302 308 320 326 326 327 327 327 327 327 327 327 325 325 325 324
316 317 325 332 330 329 331 322 317 318 317 315 314 316 319 315 312 313 314 313 312 316 323 320 315 316 316 318 324 321 323 330 329 332 333 336 338 339 339 340 341 340 339 341 341 341 341 341 340 340 339 337 336 337 336 336 336 336 335 330 328 330 330 330 330 331 331 333 333 333 332 331 331 331 330 328 323 320 317 310 304 301 302 311 321 324 325 326 326 325 326 325 325 324 324 324 324
317 318 323 331 328 325 322 317 318 318 316 317 314 315 318 313 312 312 314 313 313 319 322 316 315 316 317 321 323 319 325 331 330 333 334 336 337 340 340 339 341 338 339 340 341 340 341 341 340 341 340 338 337 337 336 336 336 336 335 332 330 330 330 331 331 331 331 332 333 332 332 331 331 330 330 328 324 320 317 312 304 301 300 304 312 318 321 323 324 323 324 324 323 323 324 323 323
325 326 329 336 331 321 319 320 321 322 319 318 316 316 316 312 312 313 314 312 313 318 317 314 318 321 320 322 321 318 324 331 331 333 335 336 338 340 338 338 340 338 339 339 340 340 340 340 340 341 340 339 338 337 336 335 336 336 336 334 331 330 330 331 332 332 331 332 332 332 332 332 331 330 330 329 325 321 318 313 306 301 300 300 304 310 313 316 318 319 320 319 318 318 319 320 321
325 331 339 339 329 321 322 323 320 328 330 320 315 316 312 310 313 314 314 315 313 317 316 314 317 320 323 325 319 314 320 331 332 332 336 336 337 339 336 338 341 339 339 339 340 340 339 339 339 340 340 340 339 338 337 335 336 336 336 335 333 331 330 331 332 333 332 332 332 332 332 332 331 330 330 329 325 321 319 314 308 302 300 300 301 302 304 306 308 308 309 308 308 308 309 310 312
330 334 343 327 319 322 323 321 319 325 328 320 317 312 308 310 314 315 316 317 314 317 315 311 314 316 321 322 315 311 318 330 332 333 336 335 337 338 337 338 339 339 338 338 340 340 339 339 339 339 340 340 340 339 338 337 337 336 336 335 334 332 330 331 332 333 332 332 332 332 331 331 331 330 330 329 327 322 320 317 312 308 303 301 300 300 301 301 301 301 301 301 301 302 302 302 302
332 334 340 325 313 320 323 320 319 318 319 321 318 311 309 312 314 315 316 317 316 316 311 307 313 317 316 316 314 314 319 329 332 333 334 334 336 338 338 338 338 337 337 338 339 339 339 340 340 339 340 340 339 339 338 338 337 336 336 335 334 333 330 330 332 332 331 332 332 331 331 331 331 330 330 329 327 323 321 320 319 316 311 306 301 300 300 300 300 300 300 300 300 299 299 299 299
326 328 332 328 315 318 320 318 321 319 320 322 315 312 313 311 311 314 315 316 315 310 307 307 311 314 315 316 316 314 318 330 332 332 333 333 336 338 338 338 337 336 337 339 339 339 340 340 340 339 339 339 339 339 339 338 338 337 336 335 335 334 332 331 331 331 331 332 332 331 330 330 331 331 330 329 328 325 322 322 322 321 318 314 309 305 301 300 299 299 300 300 299 299 299 298 298
319 329 333 329 318 316 317 316 319 319 321 321 312 311 315 311 309 313 311 311 314 308 309 313 308 311 315 314 312 309 318 330 331 333 334 334 337 338 339 338 338 336 337 340 340 339 338 339 340 337 337 339 339 339 339 338 338 337 337 336 335 335 334 332 331 331 331 332 331 331 330 330 331 331 331 330 329 326 323 323 323 322 319 317 315 312 308 304 301 300 300 299 299 299 299 298 298
321 335 337 326 321 319 317 316 318 321 323 320 312 312 315 314 310 310 306 307 314 311 311 313 306 308 312 311 308 306 320 329 330 334 335 336 337 338 339 339 337 335 338 339 338 340 337 338 339 335 335 337 338 338 338 338 338 337 337 337 335 334 334 333 332 331 331 332 331 330 330 330 331 331 331 330 330 327 324 323 323 322 320 318 316 316 313 310 306 303 301 300 299 299 299 299 298
333 340 330 323 324 323 322 318 316 321 321 316 314 314 316 316 313 310 308 312 316 313 313 312 308 307 307 307 305 308 322 328 329 333 334 334 334 335 337 337 338 336 338 338 336 337 336 335 336 334 333 334 338 338 337 338 338 337 337 337 336 334 334 335 334 332 332 331 331 330 330 330 330 331 331 330 329 327 325 324 324 323 321 318 316 316 315 313 311 309 307 305 303 303 303 301 300
336 334 326 330 331 321 319 319 315 316 317 317 315 313 314 315 314 311 312 317 316 314 316 314 313 312 307 307 308 313 322 327 327 331 332 332 333 333 334 334 337 336 337 337 336 336 335 334 335 335 334 334 337 337 335 337 337 336 337 336 336 335 334 335 335 333 333 332 331 331 330 329 329 330 331 330 328 326 325 324 324 324 323 320 318 317 316 315 315 313 312 311 310 310 309 308 306
325 325 327 336 331 319 316 318 318 315 314 318 316 312 314 313 312 312 314 318 316 317 319 315 316 318 313 310 313 319 322 325 326 328 330 331 332 332 333 333 333 336 337 336 336 336 336 336 336 336 336 336 335 333 333 335 336 337 337 336 335 335 334 335 335 333 333 332 331 331 330 330 329 330 331 329 328 326 325 325 324 324 323 321 319 319 318 318 318 316 315 314 314 314 314 313 312
318 322 326 327 321 318 317 317 319 316 313 317 317 313 314 312 312 314 315 317 317 319 319 317 317 321 317 310 314 322 321 323 323 324 326 327 331 331 331 332 333 336 337 336 336 336 336 336 335 334 336 336 334 333 333 333 335 336 336 335 335 335 335 335 334 333 333 332 331 331 330 330 330 330 330 329 328 326 325 325 324 324 323 321 320 320 319 320 320 318 317 316 316 316 316 315 315
317 317 318 319 317 316 317 316 317 315 312 316 318 314 313 311 313 316 316 316 318 319 317 317 316 316 315 310 313 320 320 321 321 321 323 323 328 331 331 333 334 334 336 336 335 336 334 333 333 333 335 335 334 335 335 335 334 333 334 336 335 335 336 334 334 334 332 332 331 330 330 331 331 330 330 329 328 326 326 325 324 324 324 321 321 320 319 320 320 318 318 318 317 317 316 315 315
318 317 313 317 317 315 315 315 315 313 314 318 317 314 313 314 315 315 314 315 317 315 311 313 311 307 308 307 310 317 320 319 319 320 321 322 324 327 330 331 333 334 334 335 334 335 334 334 333 332 332 332 333 334 335 336 334 332 333 336 335 334 335 334 334 334 332 331 331 330 330 330 331 330 331 330 328 327 326 325 324 324 324 323 322 321 319 319 319 317 317 318 317 317 316 315 314
322 319 314 315 314 313 314 313 313 312 316 317 314 312 314 317 315 311 313 316 316 310 303 303 304 302 304 307 309 314 319 319 319 320 320 322 323 324 326 327 330 331 332 333 333 333 332 332 331 329 329 330 331 331 333 334 334 332 330 333 333 334 336 335 335 334 332 332 331 331 330 330 330 330 332 331 329 327 326 326 325 324 324 323 322 321 319 318 318 318 317 317 317 317 316 315 313
322 318 316 315 314 314 313 313 315 314 314 313 312 314 315 315 312 311 316 318 317 309 302 302 302 303 306 310 311 309 313 318 318 319 319 320 320 321 323 324 327 328 329 329 329 329 329 328 328 327 326 326 328 329 330 331 331 330 328 331 332 332 334 334 336 336 333 332 332 332 331 331 331 330 332 332 330 328 327 326 325 324 324 323 322 320 319 319 319 318 317 316 316 317 316 315 314
317 318 318 316 315 316 313 314 317 316 314 312 314 317 314 311 310 315 318 318 316 309 308 311 310 313 314 312 309 305 308 312 314 317 318 318 317 318 320 322 324 326 327 327 327 328 327 328 327 328 327 326 326 326 327 329 330 329 328 332 332 331 333 332 335 335 334 333 332 332 332 332 331 330 331 332 330 329 327 326 325 324 324 324 322 319 319 320 319 318 317 315 316 316 315 314 313
316 319 318 318 318 316 314 315 317 315 315 314 315 317 314 310 311 317 317 313 311 312 315 314 313 318 316 311 307 304 305 307 310 314 315 316 315 315 316 318 320 322 324 325 326 325 325 325 324 324 324 324 324 324 325 329 331 330 329 331 330 331 334 333 333 332 333 333 332 332 332 332 332 331 331 331 331 329 328 327 325 324 324 323 322 319 319 319 318 317 316 315 315 315 313 311 311
315 320 318 320 322 316 316 317 316 315 315 314 314 315 314 311 313 317 316 309 308 315 319 317 317 319 315 312 308 304 304 305 306 308 311 314 315 316 315 316 317 318 319 320 321 320 319 319 318 318 317 318 320 321 322 325 329 330 329 330 332 332 333 333 332 329 331 332 331 333 332 331 332 332 332 331 331 330 328 328 326 325 325 323 321 319 319 318 317 316 315 314 314 314 312 309 309
315 319 317 322 327 320 316 316 315 315 314 314 314 315 318 315 315 317 315 309 309 315 320 320 320 319 315 312 309 305 303 304 305 306 308 311 315 316 316 316 316 316 316 316 316 316 315 315 314 314 313 314 314 316 319 321 325 329 329 329 331 330 331 333 330 328 332 332 331 332 331 330 330 331 333 331 331 331 329 329 327 326 326 323 320 319 319 318 317 316 313 312 312 312 311 308 307
316 317 319 323 327 321 315 314 314 314 314 313 314 317 324 325 320 316 312 310 312 316 320 320 320 319 316 313 311 308 304 303 304 305 307 309 311 313 315 317 316 316 316 315 315 314 314 314 313 313 312 311 311 313 317 320 323 328 329 329 329 328 331 332 328 326 331 332 329 329 330 329 329 330 331 331 331 331 330 329 328 326 327 324 321 320 319 317 317 316 312 310 309 310 309 306 304
319 314 322 326 320 320 319 315 315 313 313 313 313 317 323 326 323 316 309 309 312 317 319 318 319 318 315 313 311 310 305 303 304 305 307 308 309 310 311 314 314 315 315 315 315 314 314 313 312 312 310 310 312 313 315 319 323 326 328 329 330 328 329 330 329 329 331 331 328 328 330 329 330 330 329 330 330 331 330 329 329 327 327 326 322 320 318 317 317 315 311 310 308 307 307 303 301
324 314 326 327 317 327 327 315 315 315 312 312 313 318 320 320 321 315 308 307 310 316 318 316 317 316 314 313 311 310 306 303 303 305 306 307 308 309 309 311 312 313 314 314 314 313 313 312 312 310 309 312 315 315 316 319 322 325 327 328 329 327 325 329 331 332 331 330 329 330 331 330 331 329 327 328 330 331 330 329 329 328 328 327 323 320 318 317 316 313 310 310 309 306 304 300 297
329 318 324 326 319 327 323 313 314 314 312 312 312 318 322 320 320 315 307 308 311 317 320 317 316 314 312 311 309 308 307 305 304 304 306 307 307 308 309 310 311 312 313 313 313 312 312 311 310 310 311 313 315 316 316 319 322 325 327 328 328 325 326 330 331 331 331 331 331 331 331 330 329 328 327 328 328 329 329 329 329 328 327 326 323 320 317 316 316 312 308 308 310 307 303 299 295
330 322 321 324 321 321 320 318 314 311 312 314 313 315 319 320 319 315 311 312 314 317 320 318 314 311 310 309 307 307 307 307 306 304 305 306 307 307 308 309 310 311 311 312 312 311 311 311 309 310 313 314 315 316 317 320 323 324 327 329 327 326 328 329 328 330 330 330 330 330 330 328 326 326 328 328 328 328 327 327 327 326 325 324 323 320 316 315 314 313 308 305 308 307 303 300 296
330 326 323 323 320 317 322 324 315 310 313 315 315 315 315 316 315 313 313 313 315 315 314 313 311 310 310 308 308 307 306 307 306 305 305 306 307 307 307 308 309 310 310 310 311 311 311 310 309 311 314 314 315 317 318 320 323 325 326 328 327 326 327 328 327 328 328 328 328 328 328 326 325 326 327 327 328 328 326 327 326 325 324 323 322 318 315 314 312 312 309 305 304 305 304 301 297
329 334 335 329 322 319 323 325 317 312 313 316 316 315 315 314 313 314 313 314 314 314 312 310 310 309 309 308 307 307 307 307 305 304 305 305 306 306 306 307 307 309 309 310 310 310 310 309 308 311 313 314 315 317 318 320 323 324 324 325 326 325 325 327 326 327 328 328 327 326 325 325 325 325 326 326 326 327 326 326 325 323 323 322 320 317 315 315 313 312 309 307 304 300 299 299 299
325 332 333 328 323 323 325 323 318 312 313 320 319 315 316 313 313 313 311 312 313 313 312 311 311 310 309 309 309 308 307 307 305 304 304 304 304 305 305 306 306 307 308 309 310 310 310 308 308 311 313 315 316 317 318 320 322 323 323 324 325 324 324 325 325 326 327 327 326 324 322 322 322 322 324 324 323 325 325 324 324 322 321 321 320 318 316 315 314 312 309 308 307 300 295 294 299
328 326 323 325 324 325 324 318 317 314 315 321 320 317 317 314 312 312 311 312 313 313 313 313 313 311 310 311 310 309 308 306 305 304 304 303 304 304 304 305 305 306 307 308 309 309 309 309 309 310 313 315 315 316 319 321 322 323 323 324 324 323 323 324 324 325 326 326 324 322 321 320 321 322 323 323 323 322 322 322 322 322 321 320 320 318 317 315 313 312 310 306 304 303 298 294 297
331 325 320 324 324 322 319 315 315 315 314 321 322 318 317 315 313 313 312 313 313 313 313 314 314 313 312 312 311 310 310 310 308 305 303 302 303 303 304 304 305 306 307 308 309 309 309 308 309 310 312 315 316 317 318 320 321 323 323 323 324 323 322 322 322 323 324 324 323 321 320 319 321 323 323 323 322 320 320 321 322 321 321 320 319 318 316 315 313 312 313 308 303 302 299 295 297
328 325 323 325 324 320 318 316 316 314 314 319 321 317 316 315 315 314 313 313 314 312 312 312 311 312 312 312 312 312 311 311 310 308 304 301 302 303 303 303 304 305 306 308 309 309 309 308 309 310 311 314 316 317 318 319 320 321 321 322 323 322 322 321 321 322 323 322 322 321 320 319 318 320 322 322 321 319 319 321 321 321 321 320 320 319 317 316 314 312 313 312 307 301 295 294 297
323 323 324 325 324 322 319 319 319 318 316 315 317 321 322 323 323 322 321 318 317 315 314 314 312 310 310 311 311 310 311 310 310 310 307 301 300 301 302 303 303 304 305 307 308 308 309 309 309 309 311 313 315 317 317 318 319 319 319 319 319 319 318 318 319 319 320 320 320 320 319 318 317 318 321 321 319 319 319 320 321 321 320 320 320 319 318 316 315 314 313 312 310 305 298 295 296
323 323 323 321 321 321 320 320 321 324 325 317 315 322 331 334 330 326 326 325 321 319 318 318 315 312 312 312 311 310 310 309 309 309 308 303 300 301 301 302 302 304 305 306 307 308 309 308 309 309 310 312 314 316 316 317 318 318 317 315 314 313 312 313 316 318 318 319 319 319 318 317 317 319 320 320 318 319 320 319 320 320 319 319 318 318 317 316 315 314 314 313 310 308 303 298 297
324 321 320 317 316 318 319 320 320 326 328 316 312 321 328 329 323 320 324 324 320 319 319 317 315 314 314 314 313 312 311 310 310 308 306 303 301 300 300 301 302 303 304 305 306 308 309 308 309 309 309 311 313 315 316 316 317 317 317 316 316 315 314 314 318 318 319 320 319 318 317 317 318 319 319 318 317 319 320 319 319 319 318 318 317 316 316 316 315 314 313 313 310 307 305 301 299
327 319 319 318 316 320 321 319 319 325 325 317 318 325 325 324 321 321 322 324 324 324 322 319 316 315 315 314 313 313 313 312 312 312 309 304 300 300 301 301 302 303 303 305 306 307 309 309 309 309 309 311 313 315 315 315 316 316 316 317 318 319 318 318 319 318 319 319 318 317 316 317 318 318 317 317 318 318 318 319 318 318 317 316 315 315 316 315 314 313 312 311 310 307 305 304 302
324 314 317 319 319 323 324 323 323 323 322 322 322 321 322 327 329 327 322 321 323 325 324 320 318 319 318 318 318 315 314 313 312 313 310 304 300 300 301 301 302 302 303 304 305 307 308 309 309 310 310 311 313 314 314 315 315 315 316 317 317 317 316 317 317 318 318 317 316 316 316 317 317 317 316 316 317 318 318 318 317 316 316 315 315 314 315 314 313 313 311 310 309 307 305 305 304
315 310 315 318 320 323 325 328 327 326 327 325 324 321 319 325 332 332 323 320 324 324 322 319 318 323 323 323 324 320 318 317 315 312 305 301 301 301 301 301 301 302 302 303 305 306 308 309 309 309 310 311 311 312 314 314 314 315 316 316 315 314 312 313 314 315 315 314 314 315 315 316 317 317 315 315 316 317 317 316 316 316 315 314 314 313 313 313 312 311 311 310 309 306 304 304 305
312 317 323 322 324 325 326 328 325 328 330 323 323 323 317 321 331 330 320 322 330 325 323 324 323 328 330 330 331 326 325 324 320 315 304 298 300 301 300 301 301 301 302 303 304 306 308 309 309 309 309 309 309 310 312 313 314 314 314 314 314 313 312 312 313 312 311 312 313 314 315 315 316 316 315 315 314 315 315 314 315 315 313 312 310 309 309 309 309 309 309 309 307 305 303 303 303
316 329 330 324 326 325 325 328 325 329 329 320 319 319 317 320 328 328 322 323 326 321 323 329 330 334 336 336 332 326 326 325 322 321 312 301 299 300 299 300 300 301 302 302 305 306 307 308 309 309 308 307 307 308 310 312 312 312 313 313 313 313 313 313 313 313 311 312 313 314 314 314 314 314 314 313 313 312 312 312 313 312 309 305 302 302 303 304 306 308 308 307 306 304 303 302 301
321 330 327 323 326 324 324 329 327 328 322 314 315 319 319 320 320 320 321 321 321 317 317 323 327 330 331 330 326 321 322 322 320 321 318 312 304 299 298 299 300 300 301 302 304 306 307 308 308 308 307 307 307 308 309 310 310 311 312 312 312 312 313 313 313 314 313 313 314 314 314 314 313 312 312 312 312 311 310 310 310 307 302 298 296 298 301 303 305 306 306 306 304 303 302 300 298
322 326 325 325 326 324 326 328 323 322 318 312 311 317 321 321 320 320 318 316 317 316 314 315 317 320 320 318 317 316 314 313 314 314 315 313 304 297 297 299 299 300 301 302 304 306 307 308 307 307 307 307 307 307 308 308 309 311 311 311 311 311 312 312 312 313 313 314 314 314 315 315 314 313 312 312 311 309 307 307 306 301 296 294 295 298 301 303 304 305 305 304 302 301 298 296 294
320 323 322 324 327 326 327 329 326 322 323 316 310 316 326 326 322 321 318 316 318 317 316 315 314 313 313 313 314 315 313 311 312 312 311 307 299 296 298 298 299 300 301 302 304 305 306 307 307 307 306 306 306 306 307 308 308 309 310 309 310 310 311 311 312 313 313 314 314 314 314 315 315 315 313 312 310 307 305 303 300 296 294 293 295 297 300 302 303 304 303 301 299 296 293 292 292
319 321 321 322 325 324 320 319 321 322 324 322 316 320 326 324 320 318 317 320 324 322 318 318 319 316 313 314 315 315 313 312 313 314 314 306 297 296 298 297 299 300 300 302 303 305 306 306 306 306 306 306 305 306 307 307 307 307 308 308 308 309 309 309 311 312 312 312 312 312 313 314 314 314 313 312 310 306 303 300 296 293 293 293 293 295 297 299 299 299 298 295 293 292 291 291 291
318 320 321 319 319 326 324 314 311 314 317 322 322 322 321 318 318 319 318 320 324 323 322 323 323 320 318 318 318 320 318 314 314 315 315 307 297 296 297 297 299 299 300 301 302 304 305 305 306 305 306 305 304 305 306 306 306 306 307 307 307 308 308 309 310 311 311 310 310 311 312 313 313 312 312 311 310 307 303 298 293 292 292 292 292 293 293 293 294 293 292 291 291 291 291 291 291
320 322 321 317 315 323 327 320 320 320 321 326 324 321 319 319 319 320 319 320 320 320 321 321 320 320 322 320 318 322 320 316 316 315 312 303 295 295 297 297 299 299 300 301 302 303 304 305 305 305 305 305 304 305 305 305 305 305 306 306 306 307 308 309 310 310 310 310 309 309 310 311 311 312 310 310 309 307 304 297 292 291 291 291 291 291 291 291 291 291 291 291 291 291 291 290 290
318 322 320 320 322 324 323 322 326 326 325 331 330 321 317 319 321 319 319 325 328 323 320 319 320 319 319 318 319 323 322 321 323 322 319 309 296 295 297 297 299 299 300 301 301 302 304 304 305 305 305 305 304 304 304 304 304 304 305 305 306 307 308 309 309 308 309 309 309 309 310 310 311 310 309 308 307 307 304 297 291 291 291 290 291 290 291 291 290 291 291 291 291 290 290 290 289
314 316 315 318 324 325 323 321 323 322 323 328 329 324 319 320 324 322 317 324 332 331 327 327 329 324 321 322 327 334 337 336 332 326 328 318 298 293 297 297 298 299 299 300 301 301 303 303 304 304 304 304 304 304 303 303 303 303 304 305 305 307 308 308 308 308 308 308 309 309 309 309 310 309 308 306 305 306 304 297 291 290 290 290 290 290 290 290 290 291 291 291 290 290 289 289 289
316 317 318 318 319 321 322 320 320 324 328 329 327 322 318 319 322 323 320 322 324 330 335 334 333 329 328 330 335 345 343 336 330 325 329 321 299 293 297 297 298 299 299 299 300 300 302 303 303 304 304 304 303 304 304 304 304 303 303 304 304 306 307 308 307 307 307 307 308 308 308 308 308 306 305 304 303 304 302 296 290 289 290 289 290 290 290 290 290 290 290 290 290 289 289 289 289
317 318 318 318 318 319 320 319 319 321 325 326 325 322 319 321 324 323 323 323 319 322 328 329 330 333 335 333 336 344 340 333 329 324 327 318 298 293 296 296 297 298 298 298 299 299 301 302 303 303 303 303 303 303 304 304 304 303 302 303 304 305 306 306 305 305 306 306 307 307 307 307 305 303 303 302 301 302 300 293 289 289 289 289 289 289 289 289 290 290 290 289 289 289 289 289 289
Wind_Speed
7 6 6 5 4 2 3 4 2 2 3 2 1 1 2 1 0 1 2 2 1 1 2 1 2 3 3 2 3 4 3 2 3 2 1 1 3 12 11 6 13 16 15 15 14 14 15 15 14 14 13 13 14 14 15 15 14 14 15 15 15 15 16 16 15 15 15 15 16 17 18 19 20 22 23 22 21 21 21 20 20 20 19 19 19 19 19 20 20 19 19 18 18 18 17 17 18
6 6 5 3 6 3 1 3 2 2 4 1 2 2 2 1 0 3 5 3 2 1 2 3 4 4 4 3 3 3 1 1 2 1 1 3 5 11 10 9 15 16 15 15 14 14 15 15 14 14 14 14 14 14 14 14 14 14 14 15 15 16 17 16 15 15 15 15 15 17 18 19 21 22 22 21 20 20 20 20 20 20 19 19 19 19 20 20 20 19 19 19 19 18 17 17 18
6 5 4 1 4 4 2 3 2 1 3 1 2 2 1 1 3 5 5 4 4 3 3 3 3 3 3 3 1 1 1 2 1 1 0 5 6 10 12 11 15 15 14 15 14 14 15 15 14 13 14 14 14 13 13 13 14 13 14 14 15 16 16 16 16 16 16 15 15 17 18 19 21 21 21 20 19 19 20 20 20 20 19 19 19 19 20 20 20 20 19 19 19 17 17 17 18
6 7 3 2 2 4 3 3 2 3 2 2 2 3 2 3 5 4 4 3 4 3 1 1 1 1 1 1 0 0 0 2 1 2 1 4 6 10 13 12 14 15 15 15 15 14 15 14 13 13 14 14 13 13 13 13 14 13 13 13 14 15 15 16 16 16 16 15 15 16 17 19 20 19 19 19 18 18 19 20 20 20 19 19 20 20 20 21 20 20 20 20 19 18 18 18 18
5 9 4 3 3 1 3 3 2 3 2 3 1 3 3 5 5 4 2 2 3 1 1 2 1 1 0 1 1 1 1 1 1 2 2 4 7 9 12 13 13 15 16 15 15 14 14 14 13 13 13 13 13 13 13 13 13 12 12 12 14 14 15 15 15 15 15 15 15 15 15 17 18 18 18 18 18 18 18 19 20 20 20 20 20 21 20 21 20 21 21 20 19 18 18 18 19
3 9 9 7 4 1 3 3 2 1 3 4 2 3 4 5 5 4 1 0 2 2 2 1 1 2 1 1 1 1 1 1 1 2 3 6 6 8 12 14 13 14 15 15 14 14 13 13 13 13 13 13 12 12 13 12 12 12 11 12 13 13 14 14 15 15 15 15 15 14 14 16 17 17 17 17 17 17 17 18 19 20 20 20 20 20 20 20 21 21 21 20 19 19 19 18 18
2 2 6 8 3 2 3 3 3 1 2 3 1 3 4 4 4 4 3 1 1 0 1 1 1 4 1 1 1 2 2 2 2 3 5 6 6 9 14 14 13 13 14 15 14 14 13 13 13 13 12 12 12 12 12 12 12 11 10 12 12 12 13 14 14 14 14 14 14 14 14 15 15 15 16 17 17 17 17 17 18 19 20 20 21 21 21 21 21 21 21 20 19 18 18 18 17
5 1 1 4 2 3 3 2 2 1 0 2 3 3 3 4 4 5 5 2 1 1 0 1 1 2 1 1 1 2 2 3 4 5 6 7 7 11 15 14 14 13 14 15 14 13 13 13 14 13 13 12 12 12 12 12 12 11 10 11 11 12 13 13 13 13 13 13 13 13 13 13 14 14 15 16 16 16 16 16 17 17 19 20 20 21 21 21 21 21 20 19 18 18 17 17 17
6 3 0 4 2 3 2 1 1 2 2 3 3 3 3 3 3 3 4 2 1 2 2 3 2 0 1 1 0 2 2 4 5 7 8 8 8 12 15 14 14 14 15 15 14 13 12 13 14 13 13 13 13 12 12 12 11 11 10 10 11 11 12 12 13 13 13 12 12 12 12 12 13 13 14 15 16 16 16 16 16 17 18 19 19 20 21 21 20 20 20 19 18 18 17 18 18
5 3 2 3 3 3 2 0 1 1 3 4 3 4 3 4 3 2 3 2 1 3 2 2 1 1 3 3 1 1 3 6 6 8 9 10 11 13 14 12 12 13 15 15 13 12 11 12 13 14 13 13 13 12 12 12 11 11 11 10 10 11 11 12 12 12 12 12 12 11 11 11 12 12 13 15 15 15 16 16 16 17 17 18 18 19 20 20 20 20 20 19 18 18 18 18 18
3 3 2 3 3 2 1 2 3 2 3 4 3 4 4 5 4 2 1 1 0 2 3 2 2 3 3 1 1 2 6 8 7 10 11 11 13 15 15 13 11 11 15 15 14 12 11 11 11 13 13 13 13 12 13 12 12 11 11 10 10 10 11 12 12 11 11 11 11 11 11 11 11 11 12 14 15 15 16 16 16 17 17 17 17 18 18 19 19 19 19 18 17 17 17 17 16
1 2 4 3 2 2 3 3 3 4 5 2 1 2 2 5 3 3 3 3 2 1 3 4 2 3 3 2 1 3 7 10 9 11 12 12 14 16 16 14 12 12 15 15 14 13 12 12 11 11 12 13 12 12 13 13 12 12 12 11 10 10 10 11 11 11 11 11 11 11 11 11 11 11 12 13 14 15 16 16 16 17 17 17 17 17 17 18 18 18 18 17 17 17 17 17 16
2 1 5 3 2 2 2 4 2 3 4 2 3 1 3 5 3 5 5 3 3 3 3 4 2 2 2 2 1 1 6 11 11 11 13 13 14 16 16 14 12 13 16 15 13 12 12 12 12 11 12 12 12 12 13 13 13 13 12 11 11 10 10 10 10 10 10 11 10 11 11 11 11 10 11 12 13 14 15 16 17 17 17 17 17 17 17 17 17 18 18 18 18 18 18 18 17
3 2 4 3 1 2 3 2 1 1 3 4 2 2 3 3 3 4 6 3 4 4 1 2 4 2 2 1 1 2 7 13 12 12 13 14 15 15 15 14 13 14 16 16 13 12 12 12 12 12 11 12 13 12 13 12 12 13 13 12 12 11 10 10 10 10 10 10 10 11 10 10 11 10 10 11 13 14 14 16 17 17 17 17 17 17 17 17 17 18 18 19 19 19 19 19 19
3 2 4 4 1 1 3 1 2 4 4 4 2 3 3 2 2 3 5 4 4 3 1 1 2 2 2 3 2 2 10 17 14 13 13 14 16 15 15 15 14 15 17 16 14 14 14 13 14 14 11 12 13 12 13 12 13 13 13 12 12 11 11 11 11 10 9 10 10 11 10 10 11 10 10 11 12 13 14 15 16 17 17 18 18 17 17 17 17 17 18 18 19 19 20 20 20
3 4 5 3 2 2 3 2 2 3 4 4 1 2 3 1 2 3 3 3 1 1 1 2 1 1 2 4 2 2 13 19 16 15 14 15 16 15 15 16 15 15 18 17 16 16 16 15 16 16 14 14 12 12 14 13 13 13 14 13 12 12 12 12 11 10 9 9 10 11 10 10 11 10 10 11 12 13 13 14 15 17 18 18 18 18 18 18 17 17 17 18 18 19 20 20 20
2 4 5 2 3 3 5 4 4 4 4 4 2 2 5 1 1 2 1 3 3 0 2 2 2 2 3 3 1 4 17 21 18 17 17 17 16 16 16 17 16 16 19 19 18 17 17 16 15 14 14 14 13 12 14 14 14 14 15 14 13 14 13 12 11 10 9 10 10 10 10 10 11 10 10 11 12 13 13 14 15 17 18 19 19 20 20 19 18 18 18 18 18 18 19 20 20
4 3 4 2 3 4 6 8 7 4 2 5 4 3 6 3 2 1 0 3 3 0 2 2 2 4 4 3 3 8 21 21 20 20 19 19 17 17 18 19 19 17 19 20 20 18 18 18 15 14 14 13 14 14 14 15 16 15 15 15 15 15 14 13 12 12 10 11 11 11 11 10 11 11 11 11 12 13 13 14 15 16 18 19 20 20 21 20 20 19 19 19 19 19 19 20 20
4 3 3 3 5 5 5 7 6 2 1 5 3 2 4 4 3 2 2 3 4 1 4 3 4 5 2 1 4 14 21 20 21 20 20 21 20 19 18 20 21 21 21 20 20 20 20 19 17 15 14 15 16 16 15 15 15 14 15 16 16 16 15 14 13 12 12 12 12 11 11 11 11 11 11 11 11 13 13 13 14 15 16 18 19 20 21 21 21 21 21 21 21 21 21 22 22
2 3 2 5 6 4 3 6 6 4 2 6 4 2 1 2 3 2 3 1 2 3 5 2 5 7 4 4 10 16 18 19 20 20 20 20 21 21 20 20 21 24 24 22 21 21 20 19 17 14 14 16 16 16 17 15 14 15 15 16 16 16 16 14 14 14 13 13 12 12 12 11 12 12 13 12 11 13 14 13 13 15 16 17 18 20 21 21 21 21 22 22 22 22 23 23 22
2 3 3 4 3 1 2 6 5 4 3 5 5 3 1 2 2 2 5 2 3 6 6 7 8 8 6 6 11 16 17 18 18 19 20 20 21 21 22 23 22 23 24 22 22 21 19 18 17 15 15 16 15 15 18 17 16 16 15 15 16 15 15 15 15 15 15 14 13 13 13 13 12 13 14 14 12 13 15 14 13 14 16 17 17 18 20 20 19 20 21 22 23 23 23 22 21
3 1 3 4 2 2 1 4 4 3 3 5 6 5 3 2 2 2 7 5 5 5 5 8 8 5 7 9 13 15 15 16 17 19 20 21 24 22 23 24 23 24 24 24 24 23 22 22 21 20 17 17 16 15 17 20 18 18 16 16 18 16 15 17 16 17 16 14 14 14 15 15 14 14 15 15 14 14 16 15 14 14 15 16 16 17 19 19 18 20 22 22 22 21 21 21 20
3 1 1 3 3 1 1 2 2 3 5 6 5 4 3 4 1 2 6 8 7 5 3 5 5 4 7 11 14 14 13 15 18 23 24 24 27 26 26 26 26 25 25 25 24 24 23 23 23 24 21 19 18 15 17 20 19 19 19 17 18 18 17 17 17 18 18 15 15 15 16 16 17 17 18 18 15 16 16 15 16 15 15 16 14 14 17 19 19 21 23 23 21 20 19 19 19
5 1 1 2 2 0 2 1 1 3 5 5 4 3 3 4 3 1 4 11 8 4 2 3 5 4 7 10 12 14 15 18 22 25 25 26 28 28 28 28 28 26 25 25 23 23 23 22 23 24 24 22 21 19 17 19 18 19 21 19 17 17 17 17 18 19 17 15 14 15 15 16 18 18 21 21 17 17 18 16 17 15 15 15 13 14 18 20 20 21 23 22 21 19 17 17 18
5 2 2 1 0 2 1 2 3 1 2 2 3 4 2 4 3 0 8 12 7 4 1 1 2 4 7 8 10 13 14 18 20 21 22 24 24 23 25 27 28 28 28 28 26 25 25 24 24 23 23 23 24 24 21 20 19 19 20 22 19 18 19 18 18 18 17 17 15 15 15 16 17 18 22 22 19 20 19 18 19 17 16 15 15 16 18 20 20 20 21 22 21 19 17 16 17
1 3 2 2 1 4 2 3 4 2 0 1 2 1 3 3 1 3 9 8 4 2 1 3 3 5 7 8 9 12 12 16 19 19 21 22 20 21 24 26 27 29 29 28 27 27 25 25 25 24 23 23 23 24 25 23 20 19 21 22 21 21 23 23 21 19 20 20 18 17 16 16 16 17 21 21 21 23 20 19 20 18 17 16 16 18 18 19 20 20 21 22 22 19 18 16 17
2 3 3 4 1 3 1 3 3 2 0 1 2 1 3 2 1 4 5 3 3 1 1 2 3 5 6 6 7 11 12 16 18 17 17 19 21 23 24 26 28 29 27 27 27 26 25 25 24 23 23 23 23 23 25 26 21 20 22 22 22 23 24 24 22 20 21 20 19 20 20 18 16 16 19 19 22 24 20 20 22 21 19 17 18 20 19 19 20 21 21 23 22 20 19 18 17
2 3 3 5 5 1 2 3 3 2 1 0 2 1 3 2 1 5 3 3 3 2 4 2 2 5 5 5 6 8 12 15 15 15 18 22 26 27 28 29 30 28 27 27 27 25 25 24 23 22 22 23 24 24 24 27 26 22 21 22 23 24 21 19 18 18 22 21 19 21 21 19 17 16 17 18 22 23 19 19 22 23 22 20 21 21 22 21 21 22 21 24 23 21 21 19 18
1 2 2 6 8 3 3 2 3 2 1 1 2 1 4 3 7 7 2 3 3 1 5 5 4 5 4 5 5 6 11 13 13 18 23 25 26 27 29 30 29 28 27 26 24 24 24 23 22 22 21 22 24 26 25 25 28 25 22 22 22 23 24 22 18 18 22 20 18 19 17 17 17 16 16 18 23 23 19 21 23 24 23 23 24 23 23 23 22 23 23 24 24 22 22 21 20
0 3 3 3 6 4 4 3 4 0 1 3 1 2 6 7 11 7 4 3 1 3 6 5 5 5 4 4 4 6 10 12 16 21 25 25 25 25 27 28 27 27 26 24 24 24 24 22 22 21 21 23 24 26 26 24 27 27 23 22 22 23 23 23 21 21 23 21 19 21 18 17 17 16 14 16 25 25 21 22 24 25 23 22 25 24 24 25 24 24 24 25 25 24 24 23 22
1 2 2 2 1 4 5 3 2 2 0 5 2 3 6 9 11 7 4 2 1 5 7 5 5 5 5 5 5 6 8 14 19 22 24 25 26 25 25 26 26 26 25 25 26 24 23 22 21 20 20 21 21 23 27 25 26 27 24 23 25 22 19 20 23 25 26 23 21 23 23 22 19 16 12 15 24 25 23 24 25 25 21 20 25 26 26 26 25 26 26 26 27 26 25 25 24
3 1 1 3 1 4 7 2 1 2 2 5 3 3 6 9 10 5 3 2 3 6 8 6 6 6 6 5 6 6 7 13 19 23 26 26 26 26 25 24 24 25 26 26 25 23 22 21 19 19 17 17 17 20 24 25 25 26 25 25 24 22 21 21 24 25 26 25 23 22 23 22 19 17 14 16 19 20 23 26 25 24 21 21 25 26 27 27 26 27 27 26 27 27 27 27 26
4 1 2 1 1 3 5 1 1 1 1 2 1 2 3 5 7 5 2 3 3 4 8 8 7 7 6 6 6 6 8 10 15 23 28 27 26 26 25 25 24 24 25 25 25 23 22 20 18 17 15 15 16 18 22 24 24 25 26 26 23 23 24 22 22 25 25 24 22 20 19 18 16 14 17 20 19 19 21 22 22 22 22 24 25 26 28 28 29 29 29 26 25 27 29 28 27
4 3 1 3 2 1 3 2 2 3 2 2 1 3 7 8 8 8 4 4 3 4 8 9 7 6 6 6 6 7 9 8 11 21 25 26 28 27 26 26 24 24 24 24 24 23 22 19 18 16 15 15 16 19 21 23 24 25 25 24 22 22 21 19 21 25 24 19 18 17 17 16 13 14 20 25 25 21 18 20 21 21 23 25 25 27 30 31 30 30 30 27 24 26 29 28 28
3 2 1 2 2 2 3 3 1 2 1 3 2 4 11 13 11 12 7 4 4 8 8 8 8 8 8 7 8 8 9 10 15 19 19 21 26 28 28 26 25 25 24 24 24 23 21 19 18 17 17 17 18 19 21 22 24 25 25 25 24 22 21 21 23 24 20 18 18 18 16 14 12 14 18 23 25 22 18 20 22 22 24 24 26 31 33 32 31 30 29 28 27 26 26 27 27
7 5 4 3 3 3 5 5 4 1 0 4 6 7 11 12 11 13 10 2 4 9 8 8 9 9 9 8 9 10 10 12 16 18 17 18 22 25 27 27 26 26 25 25 24 24 23 21 19 19 19 19 19 20 22 23 25 25 26 25 25 25 25 25 24 22 19 19 20 19 16 15 15 15 15 16 18 18 18 20 22 23 24 24 28 34 35 34 32 30 29 29 29 28 27 27 25
7 5 4 3 3 4 5 3 5 1 2 6 6 7 11 11 11 13 11 4 5 10 10 10 11 10 10 10 11 11 11 13 13 13 15 17 19 21 24 26 27 27 27 27 27 26 25 23 22 22 22 21 22 23 25 26 27 28 26 24 23 25 26 24 23 22 22 22 21 18 15 15 16 17 16 15 14 16 18 20 22 23 24 25 29 34 35 34 32 30 29 29 29 30 30 27 23
6 5 3 1 3 5 5 1 4 1 2 5 2 5 13 12 12 12 9 8 10 11 11 13 14 13 11 10 13 12 10 9 9 11 13 15 17 20 22 25 28 30 31 30 29 28 26 24 24 24 24 24 24 25 26 27 28 28 28 27 26 25 24 23 24 24 24 24 22 18 15 14 15 19 20 18 16 17 20 22 24 26 28 30 32 34 35 34 32 29 30 31 28 28 29 29 26
4 3 2 2 3 4 5 2 4 1 2 4 3 4 12 13 13 13 11 10 11 12 12 13 14 13 12 11 12 11 9 9 9 10 12 15 18 20 23 26 30 33 32 32 31 29 27 26 25 25 26 27 26 26 26 27 27 27 27 27 27 25 22 23 25 26 25 24 23 19 16 14 15 19 20 20 20 20 21 25 28 29 30 33 35 36 35 33 31 29 30 31 30 28 27 29 27
2 3 3 3 3 1 3 3 3 1 1 3 3 4 10 11 11 13 10 8 9 12 13 14 12 13 16 13 9 9 11 12 10 8 9 14 18 21 25 28 30 31 30 32 32 31 30 28 26 26 26 27 28 27 27 28 27 27 26 24 26 26 24 24 24 24 24 24 23 21 18 15 16 20 21 21 22 21 23 28 32 32 31 32 33 34 33 32 31 31 31 30 30 30 30 30 25
2 4 5 4 4 4 5 4 3 2 2 2 3 4 7 6 7 8 6 3 6 8 9 12 12 12 13 12 10 10 12 12 11 9 7 12 18 23 27 27 27 29 31 33 34 33 32 29 27 26 26 28 28 28 28 28 27 28 26 24 25 25 24 25 24 24 25 25 23 20 18 15 16 21 23 23 21 21 23 30 34 33 33 32 30 30 30 31 32 32 31 30 29 29 31 30 22
3 4 8 9 6 5 4 3 5 4 4 3 3 3 5 5 6 9 5 5 9 6 6 12 13 10 9 9 12 11 10 10 10 10 8 10 17 21 23 25 26 30 33 34 34 33 31 29 27 26 26 28 29 29 30 29 28 29 28 27 26 23 22 24 26 27 27 25 22 20 18 16 18 22 24 23 21 21 25 30 32 31 30 29 28 28 29 32 33 31 31 30 29 28 31 31 24
2 4 7 8 5 4 3 0 2 1 3 3 3 0 4 7 10 10 5 7 12 10 10 14 12 9 8 9 10 9 8 8 8 9 8 10 14 17 20 25 29 31 32 32 31 32 31 29 29 28 26 29 31 31 31 30 30 31 31 30 28 26 25 26 27 27 26 25 23 21 19 19 22 24 24 24 23 24 29 31 30 28 26 26 27 29 30 32 32 31 31 30 29 29 31 32 28
3 3 4 6 6 6 5 4 2 3 3 3 3 2 3 6 9 8 3 5 10 11 13 14 10 9 9 9 9 8 8 7 6 8 8 9 13 17 21 25 29 31 30 29 30 31 32 30 30 30 28 30 33 33 32 32 32 32 31 29 28 29 28 28 27 26 26 25 23 21 21 22 24 25 25 26 25 27 31 30 28 26 24 26 28 30 30 31 32 32 33 31 29 29 29 30 30
4 3 6 6 6 5 5 5 2 1 3 4 1 3 2 6 7 5 3 4 8 10 14 15 10 8 8 7 8 7 7 6 6 7 7 8 13 18 21 23 25 28 28 29 31 32 32 31 31 31 31 31 33 34 33 33 33 32 30 29 29 28 28 28 28 28 27 26 23 22 22 23 25 26 26 28 28 28 29 29 26 24 25 27 29 30 31 32 32 33 34 32 31 30 29 28 28
3 6 7 6 6 5 5 4 3 2 3 4 5 5 2 6 6 3 1 3 7 10 12 11 9 8 7 7 7 6 5 4 4 5 6 8 12 15 18 18 21 24 26 28 30 31 32 32 32 32 32 32 33 34 34 33 33 32 31 31 30 29 28 27 28 29 28 26 24 23 24 25 26 26 26 28 30 29 30 29 26 25 26 28 29 30 32 32 32 33 33 33 32 30 29 27 24
7 6 7 7 5 5 3 2 4 2 4 4 6 8 4 5 6 4 4 5 7 8 9 8 7 8 7 5 5 4 4 3 3 4 6 8 10 10 13 16 18 22 25 27 28 30 32 33 33 33 33 32 32 34 34 34 34 34 33 32 32 32 30 29 29 29 28 28 26 25 26 27 27 27 27 28 29 30 30 29 26 26 26 27 29 30 31 32 33 33 32 32 32 29 28 26 24
6 4 5 4 3 4 4 4 4 1 4 3 3 2 2 6 7 4 5 6 7 8 8 8 8 8 7 5 4 4 3 3 3 3 5 6 6 7 11 15 17 20 24 27 29 30 31 33 33 32 31 31 32 34 34 35 35 35 34 33 33 33 32 30 30 30 31 29 28 28 28 28 28 28 29 28 29 30 30 29 28 27 27 27 28 29 30 31 32 32 32 33 32 29 27 26 25
4 5 6 4 2 3 2 3 0 3 5 3 2 1 2 8 9 9 11 12 11 10 9 10 9 9 9 6 5 4 3 3 4 4 4 4 5 8 12 15 17 21 25 28 29 30 32 32 33 32 32 33 34 34 35 35 35 35 35 34 34 33 32 31 31 32 32 31 30 31 31 31 30 30 30 30 30 30 30 29 29 28 28 28 28 29 30 32 32 32 33 32 31 29 27 27 26
4 5 6 4 2 1 3 3 1 4 4 2 2 2 3 6 6 12 17 17 13 11 10 10 9 11 11 8 7 6 6 5 5 5 5 5 6 9 12 15 18 21 25 27 29 30 32 32 33 33 32 34 35 35 35 35 36 36 35 35 34 33 32 32 32 33 33 31 31 32 32 32 31 30 30 30 30 31 31 30 29 29 29 29 29 30 31 32 32 32 32 32 30 29 28 28 26
5 4 5 5 5 5 5 3 3 5 2 2 3 1 4 4 4 7 11 11 9 8 9 7 8 10 9 7 8 9 9 6 4 6 7 7 8 10 13 16 19 22 25 27 29 30 31 32 33 34 33 34 34 34 35 36 37 37 36 35 35 35 34 33 33 33 32 30 30 33 34 33 31 29 29 29 31 32 31 31 30 30 31 30 30 31 32 32 31 31 31 31 31 30 29 27 25
2 3 4 4 5 5 2 3 5 2 2 2 2 4 5 5 7 10 8 8 8 7 7 6 9 10 6 7 8 8 8 6 4 6 6 7 9 11 14 16 19 21 24 27 29 30 31 31 32 33 32 33 35 35 36 36 36 36 35 35 35 35 35 34 34 33 31 29 30 33 35 33 30 29 29 31 32 33 32 32 32 33 32 31 31 31 32 32 32 32 32 32 32 30 28 26 24
2 3 4 4 3 7 4 2 1 3 2 4 1 5 7 3 8 11 8 9 9 8 8 8 9 8 6 7 7 7 8 5 5 6 6 6 8 11 14 16 18 21 24 27 29 31 31 31 31 31 31 31 34 35 36 36 35 35 36 36 36 36 35 36 35 33 31 29 30 34 36 33 29 29 30 32 33 34 34 34 34 34 33 33 32 32 32 32 33 33 33 33 31 29 26 24 22
6 4 6 3 2 4 4 2 2 3 3 4 1 6 6 3 5 6 3 7 11 11 10 10 9 7 8 8 6 8 8 5 5 6 5 5 7 11 14 17 19 21 24 26 28 30 31 31 31 31 31 32 34 35 36 36 36 36 36 36 36 36 36 36 34 31 30 30 32 36 36 32 28 29 31 34 35 36 37 36 36 36 35 35 34 33 33 33 33 33 32 31 30 28 26 24 22
5 5 3 4 3 2 2 3 3 1 3 4 4 5 4 5 6 3 3 8 11 12 10 9 10 10 9 8 8 9 8 5 5 5 5 5 7 11 14 17 19 21 23 25 27 28 29 30 30 31 32 33 33 35 35 36 36 36 36 36 36 36 36 35 33 32 32 32 34 37 35 31 29 30 33 35 37 38 39 39 38 38 37 36 35 35 34 34 33 33 32 30 29 27 26 24 22
3 1 2 3 2 4 3 3 4 4 4 3 4 4 4 7 7 6 10 11 10 10 8 8 11 10 8 7 7 7 6 5 5 5 5 5 7 12 15 16 18 20 22 23 25 27 28 29 30 31 32 32 33 34 35 35 36 36 36 36 36 36 36 34 33 33 34 35 36 37 34 31 30 32 35 36 38 40 41 41 40 39 38 38 36 35 34 34 33 32 31 30 29 27 25 24 23
3 3 4 3 1 2 1 1 3 4 4 3 2 4 7 7 5 9 12 10 9 9 7 8 8 7 7 8 7 6 5 5 6 5 5 4 6 11 13 15 16 18 20 22 24 26 28 29 30 31 32 32 34 35 36 36 36 36 36 37 37 37 36 34 33 33 34 35 36 35 31 29 30 33 35 37 39 41 42 42 41 40 39 38 37 36 35 34 33 31 30 29 28 27 25 24 23
8 8 8 9 6 4 3 4 2 2 3 4 4 3 9 7 5 8 9 8 8 8 7 8 6 6 7 8 7 7 6 6 6 6 5 4 6 9 11 13 15 16 19 21 23 26 28 30 31 32 33 34 35 36 37 37 37 37 37 37 37 37 36 35 34 34 35 35 34 32 29 29 31 33 35 37 39 42 42 42 42 40 39 38 37 36 35 34 32 31 30 29 28 27 25 24 23
Wind_Direction
324 329 337 2 357 317 343 43 89 333 71 87 313 149 225 222 139 227 246 267 247 239 209 103 119 134 109 133 168 163 149 174 163 129 196 228 138 153 153 143 151 152 152 151 148 147 142 137 134 130 129 129 124 122 120 117 115 111 112 114 114 110 105 101 100 100 98 94 91 89 81 76 73 71 71 69 67 65 68 75 75 74 76 79 81 83 85 88 89 89 88 88 89 89 89 87 84
332 341 353 22 9 18 219 55 98 330 55 121 241 176 246 337 0 213 206 215 209 207 132 118 109 93 70 91 115 119 111 285 180 166 228 138 126 152 152 133 147 153 154 154 151 150 141 135 132 130 131 128 123 122 119 116 114 110 110 111 112 110 108 105 102 102 99 95 94 90 83 78 74 72 73 71 68 67 70 73 74 74 75 77 80 83 85 87 89 88 88 89 89 90 89 87 85
352 352 3 48 6 41 100 40 89 98 79 156 248 228 220 141 221 223 212 204 165 143 113 119 113 77 46 54 70 86 67 298 213 217 188 136 133 155 157 139 146 154 156 156 153 151 143 137 136 133 132 130 125 122 119 117 115 111 109 109 111 111 110 107 103 102 100 99 96 90 83 80 78 75 74 72 70 69 71 73 72 73 74 76 79 83 86 88 88 88 88 89 89 89 88 85 82
7 4 359 145 42 39 58 38 117 123 121 188 247 243 200 185 213 228 237 204 160 124 86 125 91 17 38 62 68 62 82 279 253 199 141 131 143 163 166 151 150 159 161 159 157 153 146 142 139 138 136 133 129 124 121 121 118 113 110 112 113 111 108 104 102 102 101 100 97 90 83 82 81 78 76 73 72 70 73 75 73 72 74 76 79 83 85 87 87 87 88 89 87 87 85 83 80
23 29 36 134 77 53 88 71 108 99 170 182 173 247 227 204 199 208 247 184 194 156 116 129 98 301 111 110 157 141 176 212 269 204 136 124 144 168 175 164 159 165 164 162 162 156 150 147 144 143 140 136 133 128 125 122 120 115 112 115 115 110 106 103 103 102 101 103 99 92 86 85 84 80 76 74 74 72 73 78 77 74 75 78 80 82 84 85 86 87 88 88 87 86 85 82 80
51 53 54 82 82 130 118 92 107 102 205 170 148 252 234 202 190 176 119 47 243 204 159 150 138 156 109 306 214 195 203 141 194 196 148 134 145 164 169 165 164 169 168 165 166 161 156 153 148 147 143 140 138 132 128 124 121 118 116 117 114 108 106 105 106 105 103 104 101 96 89 87 85 81 76 73 74 73 72 77 81 80 79 80 82 83 83 84 86 87 88 89 87 86 85 83 81
80 71 42 69 62 39 101 115 154 173 187 168 183 245 229 202 186 141 137 201 241 187 190 257 149 120 103 302 203 236 240 199 192 172 160 145 148 154 155 160 162 168 170 167 170 168 163 158 153 152 149 145 144 138 132 130 126 122 121 122 118 109 107 107 107 107 105 105 104 100 93 89 87 83 77 74 74 74 72 75 81 84 84 83 83 83 83 84 86 87 87 87 86 86 86 85 85
62 97 0 78 37 22 91 104 167 195 111 224 241 235 231 198 175 141 161 206 200 195 216 229 195 110 121 7 136 238 247 206 182 167 169 153 155 153 150 158 161 168 173 172 174 171 168 164 159 158 155 151 148 145 140 136 133 128 125 125 122 112 109 109 107 106 105 107 106 102 96 91 89 84 78 74 74 75 73 75 81 85 87 86 86 85 85 85 87 88 88 88 89 90 90 89 87
48 45 65 80 72 34 56 51 160 233 273 263 253 237 241 188 165 140 167 230 248 167 178 200 199 131 157 80 179 270 246 203 172 167 169 157 161 154 151 160 163 171 175 176 178 172 173 169 163 164 162 157 152 149 147 144 140 136 130 127 126 121 117 114 111 109 109 110 107 104 98 92 90 86 79 75 74 76 76 77 82 85 87 88 89 88 87 87 87 89 88 88 91 91 90 87 85
35 30 130 79 79 47 25 314 248 251 249 263 261 234 204 175 165 129 167 204 216 143 180 195 108 112 150 148 241 281 201 189 174 169 169 162 161 154 158 168 166 171 175 177 178 171 173 171 167 171 169 159 156 155 153 150 147 143 138 134 133 131 127 123 120 118 117 116 112 108 103 97 93 88 83 77 73 76 77 78 82 86 86 87 88 89 89 88 89 91 88 88 91 89 88 87 87
27 4 98 78 74 98 172 210 267 270 270 293 274 244 194 169 147 121 150 168 219 128 172 163 129 157 137 201 248 166 170 178 180 171 167 164 163 160 164 174 173 173 178 177 174 175 174 172 173 176 172 165 163 162 160 157 154 151 146 143 141 137 133 130 128 126 124 123 118 114 108 103 99 92 87 80 76 77 78 79 84 87 88 88 88 90 90 91 91 92 91 91 91 89 89 89 90
68 342 63 86 122 171 189 169 251 285 311 322 189 266 177 149 134 170 176 158 171 162 211 189 171 147 123 302 244 169 173 178 183 173 168 165 167 166 168 182 184 177 181 180 175 178 176 173 176 177 174 173 172 167 164 163 161 160 155 153 151 145 141 140 137 134 130 128 124 121 116 111 107 99 93 86 81 82 82 82 86 88 89 90 90 90 90 91 91 90 90 90 88 87 87 87 87
114 158 85 96 154 148 148 143 255 317 328 268 190 257 144 146 185 201 167 135 149 157 238 204 162 115 140 250 203 195 188 180 180 172 167 165 167 169 174 186 186 178 184 185 178 178 180 181 182 183 182 180 177 173 171 170 169 167 165 163 160 156 152 151 147 144 139 134 132 128 125 120 115 108 103 94 88 88 88 87 88 88 88 89 90 90 90 90 90 89 89 88 87 87 86 86 86
128 151 103 109 110 120 144 129 232 187 251 257 212 168 162 181 213 188 148 146 197 176 252 197 157 143 167 213 189 253 191 176 173 170 166 165 166 170 178 184 182 181 183 184 181 184 186 184 185 185 185 186 184 180 177 175 175 172 172 172 169 167 162 163 159 153 149 145 140 135 133 130 124 118 114 102 95 96 96 94 91 90 88 88 90 91 91 91 90 90 90 90 90 89 88 88 87
126 126 87 105 70 100 170 161 158 159 228 228 160 158 167 217 150 150 163 163 222 213 53 175 171 186 187 167 178 238 181 172 168 167 168 166 167 173 179 180 186 183 179 182 186 194 195 190 192 189 185 190 191 186 183 180 180 178 177 180 179 178 173 172 170 162 158 154 149 145 143 138 133 128 122 110 101 101 103 101 96 94 93 91 91 92 92 91 91 91 91 92 91 92 90 89 88
117 114 71 90 133 182 184 174 125 137 245 215 180 163 148 260 143 155 224 149 166 303 25 202 188 195 180 152 164 190 167 168 165 164 168 166 167 175 179 181 190 185 177 182 186 192 195 193 195 199 194 189 189 190 192 186 182 184 183 187 187 185 185 181 178 174 167 161 158 152 150 146 141 136 127 116 107 106 108 106 103 101 99 97 96 96 96 94 94 93 92 92 91 91 90 89 88
67 79 73 94 159 195 187 173 172 169 238 230 255 199 147 259 252 175 267 90 122 204 328 245 218 209 192 169 272 184 165 166 164 163 168 167 168 173 177 181 187 187 184 189 191 192 197 200 205 211 208 194 190 197 201 191 185 191 190 192 195 192 190 188 186 185 177 168 166 160 155 154 148 144 135 124 114 111 112 111 108 107 104 103 102 100 99 97 96 94 92 92 91 90 89 89 89
57 75 104 154 175 200 188 177 191 171 192 202 210 186 151 185 223 162 141 33 35 282 284 278 281 256 224 257 291 169 164 166 165 165 165 168 176 174 173 178 186 190 188 193 200 201 202 211 217 217 217 201 191 202 212 202 191 194 194 194 198 197 193 193 193 191 187 176 171 167 161 160 155 150 144 135 127 121 120 120 114 110 107 105 105 103 101 98 95 93 92 91 90 89 88 88 89
83 108 116 207 194 204 196 171 182 169 146 169 161 143 156 183 173 140 202 319 5 254 271 316 300 269 208 180 158 158 163 168 170 173 168 169 181 184 177 177 185 193 193 196 200 200 200 206 210 211 218 205 194 204 216 212 200 199 202 201 200 200 197 196 198 196 193 186 179 174 169 166 161 156 152 149 143 133 127 128 121 113 110 108 108 106 102 99 96 93 92 92 90 88 88 88 90
128 118 129 237 208 213 218 178 188 201 153 140 146 145 158 197 170 161 189 245 353 220 239 231 254 249 201 146 151 158 166 172 175 180 179 177 183 188 190 186 185 190 194 198 195 193 194 197 202 203 206 205 205 212 216 213 205 202 205 208 205 203 203 198 199 201 198 193 187 181 178 175 168 161 158 162 160 144 135 135 128 119 113 112 111 108 105 99 96 96 96 94 92 89 88 89 90
122 109 172 232 199 155 212 196 201 200 160 139 141 129 151 212 169 149 153 160 272 240 228 211 227 228 194 169 163 166 172 178 181 185 187 188 189 190 195 196 195 193 194 199 197 195 200 206 214 212 201 200 212 221 216 211 209 211 212 218 214 205 206 203 200 202 201 198 192 188 185 180 175 167 164 171 173 153 143 145 138 129 121 117 116 114 110 103 99 101 101 97 92 88 87 88 88
81 53 185 200 167 91 202 213 198 166 118 110 129 147 169 152 135 148 156 189 242 228 218 214 224 207 179 175 171 174 179 185 189 191 192 194 197 196 196 198 200 200 199 203 205 208 215 218 222 223 211 202 211 216 209 205 208 217 219 220 215 208 208 206 205 204 201 198 194 191 188 184 178 172 173 179 179 162 152 153 149 139 129 124 122 120 119 116 114 114 109 102 95 88 85 86 86
93 336 245 209 200 74 345 256 198 145 120 134 159 173 131 109 187 188 176 218 230 203 197 211 235 229 188 169 167 178 187 193 197 198 197 196 199 201 200 200 201 202 203 205 207 210 214 216 219 225 219 211 215 217 211 203 201 211 218 220 214 210 213 207 206 209 204 196 195 194 193 190 182 176 179 184 184 170 161 159 158 149 136 131 128 128 130 126 124 121 115 108 101 90 84 85 85
90 118 287 209 197 350 313 296 139 145 148 185 184 129 124 154 193 107 218 239 239 220 236 243 248 228 184 166 174 189 193 198 204 205 203 202 204 204 204 205 206 207 209 211 213 214 218 221 225 228 225 219 218 221 222 212 208 215 223 231 224 210 211 210 208 214 208 194 196 199 200 199 188 183 183 187 190 177 170 165 162 158 144 140 141 143 139 132 128 123 117 112 105 94 88 88 86
71 139 217 140 279 312 323 89 83 109 161 207 131 112 196 205 169 157 245 247 253 246 296 341 204 166 177 182 192 198 199 206 211 211 209 210 209 208 208 208 208 211 214 215 217 220 224 225 227 230 229 226 221 222 223 222 225 225 225 228 228 219 214 215 209 212 214 201 201 203 206 210 195 186 187 192 192 181 178 170 164 164 154 150 154 153 146 138 133 128 123 116 108 100 96 96 93
120 140 164 111 345 327 17 90 47 19 0 70 133 82 296 242 170 264 252 252 281 262 81 59 127 156 192 200 203 202 205 211 211 212 213 213 210 210 209 208 209 211 213 214 215 218 219 220 223 225 227 228 227 224 219 218 221 222 226 222 221 226 222 218 210 212 217 204 202 205 207 211 200 192 193 197 193 181 182 175 167 170 165 163 164 158 152 145 139 136 131 121 113 106 103 105 102
133 122 134 95 12 305 68 110 19 353 67 25 184 235 300 310 305 257 258 291 328 238 167 44 151 194 215 216 220 213 216 218 213 211 212 212 212 212 210 208 210 211 211 210 211 213 215 218 220 222 224 226 229 228 218 213 213 214 223 222 219 225 221 210 207 216 219 210 213 210 201 204 203 201 199 201 196 182 182 181 173 174 172 171 171 162 157 152 145 142 134 125 119 112 112 112 105
95 126 136 9 355 305 69 87 358 348 129 114 142 211 296 8 270 234 257 330 353 200 234 287 224 237 239 235 245 227 230 229 218 213 210 211 213 213 212 210 211 210 209 210 210 211 214 218 220 222 225 226 228 230 223 215 214 211 215 223 220 218 219 209 208 225 220 217 224 203 193 205 206 209 207 202 198 186 183 186 179 178 177 175 175 167 161 156 149 144 137 131 125 120 121 119 110
73 89 132 334 358 10 355 29 327 342 134 265 99 323 286 230 231 242 315 335 25 58 255 278 259 258 260 250 259 240 241 237 225 222 219 217 217 217 216 216 214 211 211 211 211 213 217 220 224 227 229 232 230 227 227 217 212 212 214 223 221 216 222 220 219 229 213 211 221 202 201 219 209 211 214 204 201 194 189 189 186 183 182 177 175 170 164 158 153 148 141 136 130 127 127 122 117
277 35 96 345 6 346 325 9 333 303 132 337 44 268 272 248 249 261 329 331 13 300 264 266 264 264 268 258 260 253 246 237 230 229 228 226 224 224 224 222 220 218 216 213 214 217 220 224 228 234 237 238 233 224 222 215 209 212 215 220 221 221 223 217 216 223 214 211 222 219 225 226 208 205 211 206 200 196 192 191 190 187 184 180 175 173 168 162 158 153 146 140 133 131 129 126 122
38 19 56 29 35 279 305 349 343 169 162 6 84 226 271 269 268 272 311 324 185 260 265 262 265 266 268 264 258 257 247 237 239 238 236 233 228 227 228 226 224 222 219 217 219 221 223 227 232 239 240 233 228 220 214 210 208 210 215 216 214 218 228 223 214 214 215 216 218 220 224 221 206 196 201 208 200 194 191 191 191 187 184 183 178 176 172 164 161 156 150 143 135 133 131 128 125
37 48 323 0 137 270 308 331 136 170 322 19 101 226 277 272 271 280 316 31 144 246 269 273 271 268 265 265 256 258 258 246 246 246 241 238 233 230 228 227 225 222 220 219 220 222 224 229 234 236 234 221 215 212 207 205 206 208 213 211 210 222 230 221 209 210 216 216 215 215 216 212 200 193 202 208 205 202 197 189 186 185 185 186 180 177 174 167 163 156 151 148 140 136 134 129 126
356 76 205 260 141 286 316 340 292 322 339 358 113 225 277 275 271 287 327 101 125 251 272 273 267 267 263 257 256 257 264 258 251 248 242 238 236 232 230 227 225 222 220 220 220 222 225 228 233 229 223 214 205 203 201 199 204 210 210 205 213 224 217 211 212 213 211 205 204 204 203 201 199 208 210 206 207 207 202 192 186 187 189 184 178 177 176 169 164 157 150 150 146 141 137 131 128
318 33 147 233 191 225 300 304 319 24 68 245 261 229 250 266 277 286 282 139 148 250 265 271 267 263 259 252 257 253 255 259 251 247 242 237 235 233 231 227 225 223 221 221 222 224 227 229 230 221 214 211 202 200 199 198 202 207 206 202 210 214 208 215 214 202 196 195 199 201 199 197 210 228 215 207 203 195 201 205 196 191 188 180 177 178 175 167 163 159 152 149 149 146 140 134 132
190 171 146 246 241 220 257 269 278 30 50 238 253 253 256 265 277 283 279 155 193 255 260 271 272 262 259 252 251 249 248 251 249 248 245 238 234 231 230 227 224 223 221 221 222 223 225 227 224 212 207 207 202 200 198 198 202 202 199 196 199 206 212 216 205 191 194 204 201 197 195 192 209 222 208 203 200 191 200 208 197 187 183 181 180 175 170 165 162 161 155 149 148 146 142 139 136
149 168 145 161 218 246 240 249 269 233 198 259 241 244 259 266 273 279 281 167 209 266 274 272 269 261 258 251 249 249 245 248 250 251 248 242 236 231 228 226 224 224 223 221 219 219 220 220 215 205 204 205 200 199 198 198 199 198 194 190 193 204 208 206 199 193 199 204 194 188 190 192 204 210 196 196 199 192 193 194 187 182 182 184 179 172 169 168 166 163 158 154 149 143 141 141 140
116 121 112 157 202 267 257 255 291 248 182 262 243 253 269 267 268 270 279 299 270 269 271 267 263 257 254 249 250 247 242 250 257 255 247 240 237 232 228 225 222 221 221 219 216 216 216 215 209 202 201 203 200 199 198 198 197 195 193 195 201 201 198 198 197 194 196 196 190 187 191 196 208 215 208 205 206 196 189 187 185 182 182 182 179 175 172 170 168 165 160 157 153 145 142 142 146
89 121 124 238 217 252 256 237 306 323 184 270 314 292 274 267 268 266 269 282 271 258 256 260 258 256 254 249 251 251 250 258 257 249 240 231 227 225 223 221 218 217 216 214 214 214 214 212 208 204 200 201 202 202 200 200 201 200 198 200 203 197 197 206 205 199 194 192 189 187 191 201 213 213 208 212 216 207 198 194 190 186 183 180 177 175 173 170 169 168 163 157 154 152 149 148 151
80 112 127 271 250 267 283 311 330 358 182 273 351 309 277 274 270 264 253 248 254 252 246 251 255 258 257 249 249 254 260 262 250 239 230 223 221 218 218 218 217 218 216 213 213 212 211 209 207 204 202 202 202 203 203 202 204 205 202 198 199 201 206 210 203 196 191 189 190 187 190 202 211 207 204 211 215 209 206 202 193 187 184 180 175 172 173 173 171 173 172 164 157 155 155 156 159
99 132 142 252 257 269 283 298 322 332 177 278 327 301 278 277 272 267 257 240 253 259 252 254 253 254 257 256 255 251 252 256 253 240 218 215 217 215 215 217 216 215 213 212 210 209 209 206 203 199 200 203 202 203 205 203 201 203 202 201 201 202 202 198 193 191 190 190 191 190 194 204 218 219 211 208 206 204 210 207 194 184 182 181 178 174 175 178 177 177 177 174 167 160 157 162 167
250 177 172 220 231 210 237 282 319 322 7 357 332 306 284 282 282 276 286 301 275 259 255 262 255 247 257 266 264 248 244 252 253 245 216 206 213 215 217 217 215 212 212 212 209 208 208 205 201 198 198 203 205 205 203 202 201 200 197 196 195 192 189 189 190 193 191 191 191 194 204 214 224 220 205 199 201 203 208 201 189 180 178 180 182 183 184 185 183 181 182 182 180 173 166 167 171
282 229 203 214 212 204 237 329 5 358 341 345 6 314 285 303 290 267 280 307 281 261 254 263 261 253 250 255 257 250 244 248 249 249 232 210 214 218 218 216 214 214 214 213 211 209 208 205 200 197 197 201 205 207 204 203 205 203 195 187 185 184 185 191 198 198 194 193 197 204 212 215 214 205 196 198 203 204 200 190 184 180 179 184 189 192 192 188 185 185 189 189 187 185 176 171 173
287 248 209 207 179 167 209 311 19 313 269 299 39 66 276 304 289 268 275 288 280 284 278 267 266 263 250 244 251 251 246 243 244 248 237 221 217 215 216 216 214 216 216 213 210 208 207 206 202 197 196 199 204 206 206 206 207 204 199 195 195 195 195 199 202 201 200 201 205 209 211 207 204 202 201 204 206 203 195 187 186 190 193 197 197 196 194 190 189 190 192 192 190 189 182 177 175
236 245 155 156 158 179 187 155 191 238 270 316 36 119 257 286 277 277 309 293 285 290 283 274 268 260 255 253 252 249 246 238 234 240 234 226 221 215 218 219 218 218 216 210 208 207 206 206 204 200 198 201 204 206 207 208 206 204 202 202 205 206 205 205 204 202 203 204 206 207 207 203 203 207 208 208 207 202 196 192 195 201 203 200 194 194 194 192 193 192 190 193 193 192 190 186 180
242 208 122 132 146 158 138 126 170 329 348 308 271 136 251 266 267 301 341 293 284 281 274 275 278 271 264 263 260 256 252 242 234 238 236 230 226 225 225 225 222 219 214 210 208 207 205 204 203 200 200 203 206 206 207 209 208 207 206 206 208 207 207 207 204 201 201 202 204 205 204 202 203 210 212 209 205 202 201 201 203 205 203 197 194 195 195 195 196 193 191 193 193 193 195 194 186
193 138 100 83 81 82 85 104 117 54 328 254 196 170 223 269 270 293 329 257 258 262 265 270 280 282 275 270 270 273 276 267 254 248 247 243 238 237 233 227 223 218 213 210 208 205 203 202 200 199 200 203 206 206 207 209 210 210 212 211 210 208 206 204 199 197 197 198 201 201 201 202 205 212 213 207 203 202 203 204 205 206 202 198 198 198 197 197 196 194 193 193 193 194 194 196 193
140 117 79 62 43 43 54 51 79 63 292 258 201 188 193 272 271 233 214 219 214 231 262 277 285 285 278 271 266 269 277 277 269 266 264 257 250 244 232 222 217 213 210 207 204 202 201 200 199 198 200 201 203 206 208 209 210 212 213 213 212 209 205 200 196 195 195 196 198 199 200 203 207 211 210 205 203 202 203 203 204 205 203 201 200 199 198 196 193 192 193 193 194 196 195 195 193
108 94 88 82 359 13 26 354 49 119 255 263 244 215 174 245 259 245 241 253 233 220 241 260 268 272 270 267 261 257 261 270 276 271 269 260 242 224 213 210 208 204 202 201 201 200 199 199 198 198 200 200 201 203 206 208 209 210 211 210 210 209 206 204 203 201 199 198 199 199 200 204 206 207 206 204 203 202 202 202 203 203 202 201 198 195 195 192 190 190 192 193 194 195 195 193 189
77 100 107 99 339 0 348 305 92 222 250 251 244 236 214 243 261 271 264 259 249 232 229 237 248 259 266 269 268 264 257 262 272 265 259 251 225 209 203 200 199 198 199 199 199 198 197 198 198 199 201 201 201 203 205 207 208 210 211 210 210 210 210 212 212 209 206 204 202 199 201 204 204 205 205 203 202 202 201 201 202 202 200 198 194 192 191 190 189 190 191 193 194 194 193 189 186
145 147 139 134 138 163 251 264 278 264 270 286 252 219 250 268 272 257 251 250 246 239 238 236 240 253 263 274 280 279 268 253 251 255 254 247 231 215 206 199 197 198 200 199 198 198 198 198 200 201 203 203 203 203 204 206 208 210 212 212 213 213 214 215 215 213 209 206 205 204 205 205 204 207 207 204 202 201 201 201 202 201 198 195 192 190 190 189 189 191 192 193 193 192 189 186 185
184 160 138 157 165 172 214 213 214 250 281 313 279 226 202 217 259 251 245 260 265 256 258 258 255 255 260 276 282 279 274 261 241 248 252 249 239 223 211 203 201 201 201 200 199 200 199 200 201 202 203 203 203 203 204 207 209 210 212 213 215 215 215 216 215 213 210 208 211 210 206 204 204 207 209 206 204 201 200 200 200 199 197 194 191 189 189 188 189 191 191 191 189 187 185 183 182
212 122 116 192 192 151 160 193 178 183 331 311 240 233 219 210 275 275 254 269 277 265 272 273 264 262 260 266 267 269 274 268 244 247 255 255 244 228 216 208 206 204 202 202 201 201 201 202 203 204 205 205 204 204 206 208 209 210 212 214 215 216 215 213 211 210 211 215 218 214 206 202 203 207 209 208 205 202 201 200 199 198 196 194 191 188 187 186 187 188 187 187 185 182 181 181 178
162 144 178 210 165 118 113 219 125 79 266 272 202 248 278 313 283 271 254 265 274 272 269 255 254 267 269 258 255 259 263 255 240 242 247 251 240 228 220 214 210 207 205 205 204 204 204 203 204 204 206 207 206 206 207 208 208 209 212 214 216 217 215 212 210 211 215 218 219 214 206 200 202 208 211 210 207 204 202 201 199 197 194 192 190 187 186 185 184 185 185 185 183 180 179 179 176
134 183 204 171 106 101 113 184 358 43 240 272 257 240 275 309 276 292 296 258 260 259 257 257 264 267 258 256 255 261 264 257 251 250 245 243 232 225 222 218 216 213 211 210 209 208 207 206 206 205 206 207 207 207 208 208 208 209 212 213 215 216 214 213 214 218 219 218 217 211 204 202 207 214 215 212 208 205 203 201 199 196 193 190 188 186 186 185 185 185 185 185 182 179 179 177 175
138 189 183 117 146 184 113 161 190 213 233 269 284 265 257 223 233 280 244 231 241 247 249 258 264 254 247 255 255 261 273 276 265 256 244 233 221 221 219 217 219 217 217 216 213 211 209 209 209 208 208 209 209 208 209 209 210 211 213 215 215 215 214 215 218 220 219 217 214 209 205 207 214 219 218 213 209 206 203 200 198 195 192 190 188 187 187 186 187 187 186 185 183 181 180 176 175
62 122 109 87 169 175 168 164 167 191 204 230 291 309 264 225 206 199 218 224 224 230 238 244 249 245 236 238 243 252 264 260 256 252 244 231 218 219 219 218 220 219 219 219 215 212 211 210 211 210 210 210 210 210 209 210 211 213 214 215 215 215 216 218 220 220 220 218 212 208 209 214 219 221 219 213 209 206 202 200 197 194 192 190 188 188 188 188 188 188 188 186 184 183 182 179 177
147 162 167 190 195 119 183 211 132 152 167 182 247 277 266 249 193 189 216 227 217 212 221 232 243 250 240 227 224 229 234 238 240 238 239 235 223 223 223 223 224 222 220 219 216 215 213 212 212 211 210 209 210 210 210 212 213 214 215 215 215 216 217 218 219 220 220 217 212 212 216 223 225 224 219 213 208 204 202 200 196 194 192 191 190 189 189 189 189 189 189 188 187 185 184 183 182
178 185 192 195 183 152 193 234 209 125 145 177 176 241 270 257 183 196 216 218 216 216 227 239 240 239 242 241 230 219 217 229 237 236 231 226 219 220 221 222 221 220 218 217 217 216 215 214 213 212 212 212 211 211 211 213 214 215 215 215 216 216 216 218 218 219 218 214 214 217 222 228 228 223 218 212 207 203 201 198 196 194 192 191 191 191 190 190 191 191 190 190 190 189 188 188 187